Regional Weather Roundup
Issued by NWS Newport/Morehead, NC

Current Version | Previous Version | Text Only | Print | Product List | Glossary Off
Versions: 1 2 3 4 5 6 7 8 9 10 11 12 13 14 15 16 17 18 19 20 21 22 23 24 25 26 27 28 29 30 31 32 33 34 35 36 37 38 39 40 41 42 43 44 45 46 47 48 49 50
000 ASUS42 KMHX 161110 RWRMHX WEATHER ROUNDUP FOR EASTERN NORTH CAROLINA NATIONAL WEATHER SERVICE NEWPORT/MOREHEAD CITY NC 700 AM EDT TUE SEP 16 2014 NOTE: "FAIR" INDICATES FEW OR NO CLOUDS BELOW 12,000 FEET WITH NO SIGNIFICANT WEATHER AND/OR OBSTRUCTIONS TO VISIBILITY NCZ015>017-031-032-045>047-102-103-161200- NORTH COAST CITY SKY/WX TMP DP RH WIND PRES REMARKS EDENTON MOCLDY 71 67 86 SW3 30.05S ELIZABETH CITY NOT AVBL KITTY HAWK PTSUNNY 70 64 83 CALM 30.04S MANTEO MOCLDY 71 65 81 SW3 30.05S $$ NCZ045>047-081-094-103-104-161200- CENTRAL COAST CITY SKY/WX TMP DP RH WIND PRES REMARKS FRISCO MOCLDY 66 66 100 W3 30.05S SWANQUARTER N/A 70 N/A N/A CALM 30.03R $$ NCZ095-097-098-100-101-161200- SOUTHERN COAST CITY SKY/WX TMP DP RH WIND PRES REMARKS BEAUFORT CLOUDY 72 68 87 E3 30.05R CEDAR ISLAND N/A 72 N/A N/A CALM 30.09S JACKSONVILLE CLOUDY 72 69 90 CALM 30.04S NEWPORT NOT AVBL PINEY ISLAND CLOUDY 73 66 78 CALM 30.05R WILMINGTON MOCLDY 71 70 96 CALM 30.04S $$ NCZ011>013-027>030-043-044-078>080-089-090>093-098-161200- COASTAL PLAIN CITY SKY/WX TMP DP RH WIND PRES REMARKS AHOSKIE MOCLDY 64 64 97 CALM 30.05S CLINTON CLOUDY 71 70 98 CALM 30.06R ELIZABETHTOWN CLOUDY 71 71 100 CALM 30.05S FOG GOLDSBORO PTCLDY 69 69 98 S1 30.04R GREENVILLE CLOUDY 68 68 100 CALM 30.07S HAVELOCK MOCLDY 69 67 93 SW3 30.06R KENANSVILLE CLOUDY 70 66 88 CALM 30.06S KINSTON MOCLDY 68 68 100 CALM 30.06S NEW BERN PTCLDY 70 66 87 CALM 30.06S RICHLANDS CLOUDY 70 66 88 CALM 30.05S ROANOKE RAPIDS NOT AVBL ROCKY MOUNT MOCLDY 66 65 96 CALM 30.06R FOG WASHINGTON MOCLDY 68 66 94 CALM 30.06S WHITEVILLE CLOUDY 71 69 95 CALM 30.05R FOG $$ AMZ130-135-150-152-154-156-158-170-250-252-270-ANZ085-086-088-633-658-670-161200- MARINE OBSERVATIONS STATION/POSITION TIME TEMP WIND PRES WAVE SWELL AIR SEA DIR/SP/G HT/PER HT/PER (UTC) (F) (DEG/KT/KT) (MB) (FT/S) (FT/S) CHESAPEAKE LIGHT 1000 71 220/ 13/ 14 1017.5 BUOY 44014 1100 73 79 220/ 8/ 10 1016.9 2/ 7 2/ 7 DUCK 1100 72 76 210/ 5/ 6 1016.7 2E DUCK 1100 N/A 2/ 7 OREGON INLET 1100 72 74 260/ 2/ 4 1017.5 BUOY 44095 1100 76 N/A 2/13 20E OREGON INLET NOT AVBL HATTERAS CG 1100 74 77 280/ 5/ 5 1018.0 DIAMOND BUOY 1100 76 290/ 6/ 10 1017.5 3/ 8 2/ 8 CAPE LOOKOUT 1000 76 CALM / 2 1017.3 BEAUFORT LAB 1100 72 79 60/ 4/ 5 1017.1 30 SE NEW RIVER 1100 77 81 40/ 10/ 14 1017.4 2/ 6 2/ 6 5 SE WRIGHTSVILL 1000 75 81 200/ 6/ 8 N/A BUOY 41002 1011 80 83 310/ 8/ 10 1017.8 3/ 6 3/ 6 BUOY 41004 1100 81 83 290/ 6/ 8 1017.2 2/ 8 2/ 8 $$

USA.gov is the U.S. government's official web portal to all federal, state and local government web resources and services.